Temperature
3 3 2 2 1 0 -1 -1 -2 -3 -3 -2 -2 -2 -1 -1 -1 -1 -1 -1 -2 -2 -2 -3 -3 -4 -4 -4 -4 -4 -4 -4 -4 -4 -4 -4 -4 -3
3 2 2 2 1 0 -1 -2 -3 -3 -4 -3 -3 -3 -2 -2 -2 -2 -2 -2 -2 -2 -3 -3 -4 -4 -4 -4 -4 -4 -4 -4 -4 -4 -4 -4 -4 -4
2 2 2 1 1 -0 -1 -2 -3 -4 -5 -4 -4 -4 -4 -4 -3 -3 -3 -3 -3 -3 -3 -3 -4 -4 -4 -5 -5 -5 -5 -5 -5 -5 -4 -4 -4 -4
2 2 1 1 1 -0 -1 -2 -3 -3 -4 -5 -5 -5 -5 -4 -4 -4 -4 -4 -3 -3 -3 -4 -4 -4 -5 -5 -5 -5 -5 -5 -5 -5 -5 -5 -5 -5
1 1 1 0 0 -0 -1 -2 -2 -3 -4 -5 -5 -5 -5 -5 -5 -5 -4 -4 -4 -4 -4 -4 -4 -5 -5 -5 -5 -5 -6 -6 -6 -6 -6 -6 -6 -5
1 0 0 -0 -0 -1 -1 -2 -2 -4 -5 -5 -6 -6 -6 -6 -6 -6 -5 -4 -4 -4 -4 -5 -5 -5 -5 -6 -6 -6 -6 -6 -6 -6 -6 -6 -6 -6
0 0 -0 -1 -1 -2 -2 -3 -4 -4 -5 -6 -7 -7 -7 -7 -6 -6 -6 -5 -5 -5 -5 -5 -5 -5 -5 -5 -5 -6 -6 -6 -7 -7 -7 -7 -7 -7
-0 -0 -0 -1 -2 -3 -4 -4 -5 -5 -6 -6 -7 -7 -7 -7 -6 -6 -6 -6 -6 -5 -5 -5 -6 -6 -5 -5 -6 -6 -7 -7 -7 -7 -7 -7 -7 -7
-1 -1 -1 -1 -2 -3 -3 -4 -4 -5 -5 -6 -6 -7 -7 -6 -6 -6 -7 -7 -6 -6 -7 -7 -7 -7 -6 -6 -6 -7 -7 -7 -7 -8 -8 -8 -8 -8
-1 -2 -2 -2 -3 -3 -4 -4 -5 -5 -5 -5 -6 -6 -6 -6 -6 -6 -7 -7 -7 -7 -7 -8 -7 -7 -7 -7 -7 -7 -7 -8 -8 -8 -8 -8 -8 -8
-2 -2 -3 -3 -3 -4 -5 -5 -5 -5 -5 -6 -6 -6 -6 -6 -6 -7 -7 -7 -8 -7 -7 -8 -7 -8 -8 -7 -7 -7 -8 -8 -8 -8 -9 -9 -9 -9
-3 -3 -3 -4 -4 -4 -5 -6 -6 -6 -6 -6 -6 -6 -6 -6 -6 -6 -7 -7 -7 -7 -7 -8 -8 -8 -9 -8 -8 -8 -8 -8 -9 -9 -9 -9 -9 -9
-3 -3 -3 -4 -4 -5 -5 -5 -6 -6 -6 -6 -7 -7 -7 -7 -6 -6 -6 -7 -7 -8 -7 -8 -8 -9 -10 -10 -9 -9 -9 -9 -9 -9 -9 -9 -10 -10
-4 -4 -4 -4 -5 -5 -5 -5 -5 -6 -6 -6 -7 -7 -7 -6 -6 -6 -6 -7 -7 -8 -8 -8 -9 -9 -10 -11 -11 -10 -10 -10 -10 -10 -10 -10 -10 -10
-4 -4 -4 -5 -5 -5 -5 -5 -5 -5 -6 -6 -7 -6 -6 -6 -6 -6 -7 -7 -7 -8 -8 -8 -9 -9 -10 -11 -11 -11 -11 -10 -10 -10 -10 -11 -10 -10
-4 -4 -5 -5 -5 -5 -5 -5 -5 -5 -5 -6 -6 -6 -6 -6 -6 -7 -7 -7 -8 -8 -8 -8 -9 -10 -10 -11 -11 -11 -11 -11 -11 -11 -11 -11 -10 -10
-4 -5 -5 -5 -5 -5 -6 -6 -6 -6 -6 -6 -6 -6 -6 -7 -7 -7 -7 -8 -8 -8 -8 -8 -9 -10 -10 -11 -12 -11 -11 -11 -11 -11 -11 -11 -10 -10
-5 -5 -5 -5 -5 -5 -6 -6 -6 -6 -6 -6 -6 -6 -6 -7 -7 -7 -8 -8 -9 -9 -9 -9 -9 -10 -11 -11 -11 -11 -11 -11 -11 -11 -11 -11 -10 -9
-5 -5 -5 -5 -5 -5 -6 -6 -6 -6 -6 -6 -6 -6 -7 -7 -7 -8 -8 -8 -9 -9 -9 -9 -10 -11 -12 -12 -11 -11 -11 -11 -11 -11 -11 -11 -11 -9
-5 -5 -5 -5 -6 -6 -6 -6 -6 -6 -6 -6 -7 -7 -7 -7 -8 -8 -8 -9 -9 -10 -10 -10 -10 -11 -12 -12 -12 -11 -11 -11 -11 -11 -11 -11 -10 -9
-6 -6 -6 -6 -6 -6 -6 -6 -6 -6 -7 -7 -7 -7 -7 -8 -8 -8 -9 -9 -10 -10 -10 -10 -10 -11 -12 -12 -12 -11 -10 -11 -11 -11 -11 -11 -10 -9
-6 -6 -6 -6 -6 -6 -6 -6 -7 -7 -7 -7 -7 -7 -8 -8 -8 -9 -9 -9 -10 -10 -10 -10 -10 -11 -12 -12 -12 -12 -11 -10 -10 -10 -10 -10 -10 -9
-6 -6 -6 -6 -6 -6 -7 -7 -7 -7 -7 -7 -7 -8 -8 -8 -8 -9 -9 -10 -10 -10 -11 -11 -11 -11 -12 -12 -12 -12 -11 -11 -10 -10 -8 -7 -7 -7
Wind_Speed
19 20 19 16 14 13 12 11 12 15 14 9 9 8 15 18 24 22 21 26 27 27 27 27 28 28 29 30 30 30 31 31 31 32 32 33 34 34
16 18 19 16 14 13 14 12 14 17 18 6 9 7 9 13 22 22 21 25 27 27 28 28 29 29 30 30 30 31 32 32 33 33 34 34 35 35
18 19 21 17 16 14 13 14 15 15 21 12 7 8 10 10 11 14 17 17 19 27 29 29 29 30 30 30 31 32 32 33 33 34 34 35 36 36
20 19 21 17 19 16 15 16 16 16 18 19 8 9 12 11 10 10 12 17 17 25 28 29 30 30 30 31 31 32 32 33 33 34 35 36 37 37
19 19 20 18 19 17 17 17 16 16 15 17 14 9 10 9 9 10 13 10 16 22 26 28 29 30 30 31 31 32 32 33 34 35 35 36 37 38
17 18 18 19 20 19 17 18 16 16 15 15 14 10 11 8 7 10 11 10 12 14 18 22 25 28 30 31 31 31 32 33 34 35 36 36 37 38
16 17 18 22 25 21 17 14 14 15 14 14 15 13 13 10 10 9 12 10 9 10 11 12 13 13 16 26 29 30 31 33 34 35 36 37 37 38
16 16 17 21 26 31 33 29 23 18 17 17 16 16 14 14 12 11 10 10 9 6 9 12 10 12 11 13 25 30 32 33 34 35 36 37 37 38
15 14 13 15 21 15 23 30 29 33 30 20 19 18 15 14 13 13 13 12 13 8 6 12 10 13 11 17 28 30 32 33 34 35 36 37 37 38
13 14 14 14 14 15 13 15 16 17 21 20 18 17 16 13 12 14 13 13 12 10 10 13 12 13 12 10 25 30 32 33 34 35 35 36 37 37
12 12 13 14 21 25 17 15 16 16 24 29 26 23 27 27 20 12 12 12 13 11 9 9 10 11 12 12 16 28 31 32 33 34 34 35 35 34
9 11 19 19 21 23 16 14 17 15 12 13 18 20 18 20 27 18 13 13 10 8 6 7 7 5 8 8 9 10 15 24 30 32 33 34 34 23
9 8 10 20 23 23 21 15 19 15 10 12 11 11 10 10 11 11 10 11 11 10 5 6 6 7 10 12 10 10 11 13 15 19 26 31 32 27
9 8 10 19 21 22 19 19 24 21 11 11 11 11 11 11 11 11 11 11 12 12 8 7 7 9 12 17 15 9 8 10 13 16 14 23 27 31
9 14 17 20 19 16 19 22 19 13 11 12 11 11 10 9 8 7 7 8 9 10 10 9 10 10 11 15 17 16 15 14 13 13 13 14 15 16
10 13 17 17 13 13 14 13 10 9 10 10 9 8 7 7 8 7 7 6 7 8 9 10 11 12 13 15 16 17 16 13 11 13 14 16 16 16
8 6 5 6 6 7 7 7 7 7 9 8 8 8 8 8 7 7 6 6 6 7 8 6 8 10 13 14 16 17 17 16 15 14 15 17 16 15
12 7 7 8 8 8 8 7 7 8 8 7 7 8 8 8 7 6 5 6 8 8 8 7 6 8 9 11 17 18 16 16 15 15 15 17 19 15
9 7 7 7 7 7 7 7 7 7 7 7 8 7 7 7 6 6 6 6 7 8 8 7 7 9 13 15 9 13 14 15 15 16 15 16 19 18
6 7 7 7 7 7 7 7 6 6 6 7 7 7 7 7 6 6 6 7 8 8 8 7 7 9 12 15 14 12 17 17 16 17 16 16 17 22
6 6 6 6 6 6 6 7 7 7 7 7 7 7 7 7 7 7 7 11 9 8 9 10 9 14 11 10 13 13 11 17 20 18 17 16 17 16
6 6 5 5 5 6 6 6 6 6 7 7 7 7 7 7 7 8 7 7 7 8 10 9 8 8 8 11 15 17 17 15 17 25 27 24 15 11
6 6 5 5 5 5 5 6 7 6 7 7 7 6 6 6 6 6 7 7 7 8 9 9 8 7 9 11 13 14 17 18 15 14 15 20 26 31
Wind_Direction
233 232 234 235 229 227 223 218 234 258 260 214 217 219 223 226 233 235 233 241 248 253 258 262 265 268 270 271 273 274 276 276 277 278 278 278 278 277
233 232 234 235 232 228 227 224 225 241 259 219 212 204 211 224 232 231 228 238 245 253 258 262 265 267 268 269 271 272 273 275 276 276 277 277 277 277
234 233 235 231 232 230 227 226 228 230 249 249 205 208 210 222 235 228 226 236 246 254 259 262 264 266 266 268 269 271 273 274 275 276 277 277 277 277
236 235 237 232 232 230 228 229 230 228 238 251 230 214 221 224 227 231 238 242 242 252 257 261 263 264 265 267 270 271 273 274 275 276 277 277 277 277
237 235 236 231 233 231 228 229 230 230 231 243 243 225 229 227 228 237 241 242 246 252 257 260 262 264 266 268 270 271 272 274 275 276 276 276 277 276
239 237 235 230 232 230 230 229 227 228 228 235 240 234 233 224 221 235 246 240 244 247 252 256 259 263 265 268 270 272 274 275 276 276 276 276 276 275
243 239 238 237 236 235 234 229 223 227 227 232 237 236 233 226 227 227 240 246 246 243 247 251 255 256 261 266 269 271 273 275 276 276 275 275 275 274
246 244 242 246 248 247 244 238 226 222 224 228 233 233 231 228 230 228 233 240 251 226 233 247 241 250 252 251 262 268 272 274 275 275 275 275 275 274
243 243 244 241 244 240 246 248 244 235 226 222 229 229 228 225 223 229 231 233 242 235 227 259 252 257 256 259 267 270 273 275 276 277 277 276 276 275
244 240 240 240 235 234 231 235 238 242 240 233 227 226 226 225 219 225 232 242 250 247 234 258 261 262 264 257 268 271 274 276 277 277 277 276 276 275
247 240 240 239 244 245 238 233 236 238 244 243 238 231 229 229 225 225 230 237 249 248 223 240 259 266 268 268 266 271 274 275 277 277 278 278 277 276
253 244 249 248 248 249 240 232 235 234 226 236 243 247 241 238 236 227 226 236 248 254 216 220 247 260 278 261 253 258 266 272 275 277 278 278 277 276
261 251 244 255 256 252 245 235 237 230 217 220 226 231 234 237 239 235 228 232 245 251 215 201 241 251 266 280 276 265 262 266 271 273 275 275 274 273
264 255 247 254 255 254 250 243 239 236 223 217 223 226 226 228 229 227 226 226 232 244 238 220 245 257 271 279 284 276 259 264 269 272 270 272 273 272
266 265 262 257 255 254 253 249 243 232 223 218 218 220 220 220 214 214 221 229 238 243 244 233 241 253 259 271 280 284 286 281 270 266 268 269 268 268
279 275 274 268 256 248 249 252 240 227 222 219 215 214 207 205 209 209 218 221 242 255 241 235 238 244 260 266 273 280 280 277 273 272 274 274 270 263
264 250 245 247 238 234 238 236 225 221 225 214 211 208 208 210 214 206 210 213 234 259 266 253 242 244 251 263 272 274 276 277 276 277 278 277 272 265
280 258 245 234 231 232 232 228 222 219 214 208 206 206 208 210 213 206 207 218 241 254 261 264 268 277 273 261 249 264 270 274 277 276 275 278 278 272
282 266 253 236 227 224 222 219 218 214 206 205 207 207 207 207 209 215 218 228 243 253 258 257 257 270 282 287 260 246 264 277 281 279 275 273 275 278
269 265 256 241 228 222 216 214 213 207 204 206 205 206 204 206 212 219 223 231 247 257 264 259 250 255 266 280 287 277 268 270 276 279 280 277 274 275
271 264 254 241 230 221 214 210 208 208 204 203 206 206 205 206 217 223 229 247 254 258 264 266 260 270 276 280 281 281 273 270 271 275 279 281 281 280
265 260 251 240 230 219 211 207 208 209 205 205 207 207 206 208 219 225 231 242 249 255 264 271 270 273 269 274 280 287 292 290 283 279 273 265 264 268
266 256 244 235 227 213 206 206 207 211 209 207 208 208 206 212 220 226 234 242 252 261 269 277 278 271 270 272 280 286 291 297 299 297 287 274 264 261
Height
1433 1433 1433 1433 1434 1434 1435 1437 1439 1434 1428 1430 1434 1437 1442 1444 1446 1446 1446 1447 1448 1447 1447 1447 1447 1446 1446 1445 1445 1444 1443 1442 1442 1441 1440 1439 1439 1438
1421 1421 1420 1421 1422 1423 1424 1424 1425 1425 1419 1417 1422 1426 1430 1432 1435 1435 1436 1437 1437 1438 1437 1437 1437 1436 1436 1435 1435 1434 1433 1433 1432 1431 1430 1429 1428 1427
1409 1408 1407 1409 1410 1410 1412 1412 1413 1413 1408 1406 1412 1415 1418 1421 1424 1425 1425 1426 1426 1427 1427 1427 1426 1426 1425 1425 1424 1424 1423 1422 1421 1420 1419 1418 1417 1416
1396 1396 1395 1397 1397 1398 1399 1399 1400 1400 1399 1396 1400 1403 1406 1409 1412 1413 1414 1415 1415 1416 1416 1416 1415 1415 1415 1415 1414 1413 1412 1411 1410 1408 1407 1406 1404 1403
1383 1383 1383 1385 1384 1385 1386 1386 1387 1388 1388 1387 1387 1392 1394 1397 1399 1401 1402 1403 1404 1405 1405 1405 1405 1404 1404 1403 1403 1402 1401 1400 1398 1396 1394 1393 1391 1390
1371 1370 1370 1371 1371 1372 1373 1373 1375 1376 1377 1377 1377 1380 1383 1386 1388 1388 1390 1392 1393 1394 1394 1393 1393 1393 1393 1392 1392 1390 1389 1387 1385 1383 1381 1379 1377 1376
1358 1358 1358 1358 1358 1360 1360 1360 1362 1363 1365 1366 1366 1369 1371 1374 1374 1377 1379 1381 1381 1383 1382 1382 1382 1381 1380 1380 1379 1377 1375 1373 1371 1369 1367 1365 1363 1361
1346 1346 1346 1346 1346 1348 1349 1349 1350 1351 1352 1354 1355 1357 1358 1362 1365 1368 1369 1370 1370 1372 1371 1370 1370 1368 1367 1367 1366 1364 1362 1360 1358 1356 1354 1351 1349 1347
1336 1335 1334 1334 1334 1334 1336 1338 1340 1341 1341 1341 1342 1344 1348 1352 1357 1358 1359 1360 1360 1362 1362 1358 1359 1356 1356 1355 1354 1352 1350 1348 1345 1342 1340 1337 1335 1332
1326 1325 1324 1323 1324 1324 1324 1324 1326 1328 1331 1332 1331 1334 1339 1343 1346 1349 1350 1351 1351 1351 1352 1349 1347 1346 1344 1342 1341 1340 1338 1335 1332 1329 1325 1323 1320 1317
1316 1315 1314 1312 1313 1314 1313 1312 1313 1315 1319 1322 1325 1326 1330 1333 1337 1339 1340 1341 1340 1340 1341 1340 1337 1335 1332 1329 1328 1327 1324 1322 1318 1315 1311 1308 1305 1303
1306 1305 1305 1303 1303 1303 1303 1303 1303 1304 1308 1311 1314 1317 1321 1324 1327 1329 1330 1332 1331 1330 1331 1331 1328 1327 1319 1314 1314 1312 1309 1306 1304 1300 1296 1293 1291 1288
1297 1295 1294 1295 1294 1294 1295 1294 1294 1297 1299 1302 1304 1307 1311 1313 1316 1319 1321 1323 1322 1321 1322 1322 1319 1317 1313 1304 1300 1299 1297 1292 1289 1284 1281 1278 1276 1274
1289 1287 1286 1286 1285 1285 1286 1286 1288 1291 1292 1294 1296 1298 1300 1303 1307 1310 1312 1313 1313 1313 1313 1313 1310 1307 1303 1296 1289 1285 1284 1281 1277 1271 1267 1263 1260 1258
1282 1280 1279 1278 1277 1277 1278 1279 1281 1283 1284 1286 1287 1289 1293 1296 1299 1301 1303 1304 1304 1303 1303 1303 1301 1298 1294 1288 1281 1275 1271 1267 1264 1259 1255 1250 1246 1243
1274 1272 1271 1271 1270 1270 1270 1271 1273 1275 1277 1279 1281 1284 1287 1289 1291 1293 1294 1294 1294 1292 1293 1293 1291 1288 1283 1279 1273 1265 1262 1256 1251 1248 1243 1237 1233 1230
1267 1265 1264 1263 1263 1263 1264 1264 1266 1268 1270 1272 1275 1277 1279 1281 1283 1285 1286 1286 1285 1283 1282 1282 1281 1278 1274 1270 1263 1256 1251 1246 1241 1237 1232 1224 1219 1217
1261 1258 1257 1256 1256 1257 1257 1258 1259 1261 1263 1266 1268 1270 1272 1274 1275 1277 1278 1277 1276 1275 1273 1272 1271 1267 1262 1257 1254 1247 1241 1236 1231 1227 1222 1215 1205 1202
1254 1252 1251 1250 1250 1250 1251 1252 1253 1255 1257 1260 1262 1264 1265 1267 1268 1269 1269 1269 1268 1267 1265 1264 1262 1259 1254 1245 1240 1240 1234 1227 1221 1215 1210 1205 1196 1189
1248 1246 1245 1244 1244 1245 1245 1246 1248 1250 1251 1253 1255 1257 1259 1260 1261 1261 1262 1261 1260 1259 1257 1255 1254 1251 1247 1239 1230 1225 1225 1219 1212 1205 1198 1193 1186 1179
1242 1240 1239 1238 1238 1239 1240 1241 1242 1244 1246 1247 1249 1251 1252 1253 1254 1254 1254 1254 1253 1251 1249 1246 1245 1243 1239 1233 1224 1214 1211 1209 1204 1197 1190 1184 1176 1170
1237 1235 1234 1233 1233 1234 1235 1236 1237 1239 1240 1242 1243 1244 1246 1246 1247 1247 1247 1247 1246 1244 1241 1238 1236 1234 1230 1225 1216 1207 1199 1195 1191 1187 1181 1176 1171 1162
1232 1230 1229 1229 1229 1229 1230 1231 1232 1234 1235 1236 1237 1239 1240 1240 1241 1241 1241 1240 1239 1237 1234 1231 1228 1225 1221 1217 1210 1202 1194 1187 1180 1173 1168 1164 1160 1154